Regional Weather Roundup
Issued by NWS Newport/Morehead, NC

Current Version | Previous Version | Graphics & Text | Print | Product List | Glossary Off
Versions: 1 2 3 4 5 6 7 8 9 10 11 12 13 14 15 16 17 18 19 20 21 22 23 24 25 26 27 28 29 30 31 32 33 34 35 36 37 38 39 40 41 42 43 44 45 46 47 48 49 50

000
ASUS42 KMHX 220222
RWRMHX
WEATHER ROUNDUP FOR EASTERN NORTH CAROLINA
NATIONAL WEATHER SERVICE NEWPORT/MOREHEAD CITY NC
1000 PM EDT SUN SEP 21 2014

NOTE: "FAIR" INDICATES FEW OR NO CLOUDS BELOW 12,000 FEET
WITH NO SIGNIFICANT WEATHER AND/OR OBSTRUCTIONS TO VISIBILITY

NCZ015>017-031-032-045>047-102-103-220300-
NORTH COAST

CITY           SKY/WX    TMP DP  RH WIND       PRES   REMARKS
EDENTON        CLEAR     75  66  75 SW10      29.82S
ELIZABETH CITY CLEAR     73  66  78 SW10      29.80S
KITTY HAWK     CLEAR     73  67  81 SW8       29.81S
MANTEO         CLEAR     73  67  82 SW9       29.83S

$$

NCZ045>047-081-094-103-104-220300-
CENTRAL COAST

CITY           SKY/WX    TMP DP  RH WIND       PRES   REMARKS
FRISCO         CLEAR     74  70  87 W12       29.86R
SWANQUARTER      N/A     75 N/A N/A SW13      29.82S

$$

NCZ095-097-098-100-101-220300-
SOUTHERN COAST

CITY           SKY/WX    TMP DP  RH WIND       PRES   REMARKS
BEAUFORT       CLEAR     78  71  79 SW14      29.88R
CEDAR ISLAND     N/A     73 N/A N/A S3G14     29.91S
JACKSONVILLE   CLEAR     74  63  68 SW8       29.88R
NEWPORT        NOT AVBL
PINEY ISLAND   CLEAR     75  67  76 SW8       29.87R
WILMINGTON     CLEAR     76  68  76 SW9       29.91R


$$

NCZ011>013-027>030-043-044-078>080-089-090>093-098-220300-
COASTAL PLAIN

CITY           SKY/WX    TMP DP  RH WIND       PRES   REMARKS
AHOSKIE        CLEAR     72  65  79 CALM      29.81S
CLINTON        CLEAR     74  67  79 SW3       29.89R
ELIZABETHTOWN  CLEAR     74  66  74 S6        29.89S
GOLDSBORO      CLEAR     75  70  82 CALM      29.84S
GREENVILLE     CLEAR     73  66  78 SW9       29.87R
HAVELOCK       CLEAR     74  65  73 SW7       29.89R
KENANSVILLE    CLEAR     72  64  77 CALM      29.89R
KINSTON        CLEAR     74  65  74 SW8       29.86S
NEW BERN       CLEAR     74  64  71 SW8       29.88R
RICHLANDS      CLEAR     72  63  73 SW10      29.89R
ROANOKE RAPIDS NOT AVBL
ROCKY MOUNT    CLEAR     75  65  70 SW7       29.83S
WASHINGTON     CLEAR     73  65  74 SW7       29.85S
WHITEVILLE     CLEAR     73  66  79 SW5       29.90S

$$

AMZ130-135-150-152-154-156-158-170-250-252-270-ANZ085-086-088-633-658-670-220300-
MARINE OBSERVATIONS

STATION/POSITION TIME  TEMP    WIND        PRES    WAVE   SWELL
                       AIR SEA DIR/SP/G            HT/PER HT/PER
                 (UTC) (F)     (DEG/KT/KT) (MB)    (FT/S) (FT/S)
CHESAPEAKE LIGHT 0200   76     220/ 20/ 22 1008.1
BUOY 44014       0200   76 77  240/ 16/ 19 1007.9    5/ 8   3/ 8
DUCK             0200   76 74  220/ 12/ 16 1008.6
2E DUCK          0200                        N/A     3/ 8
OREGON INLET     0200   76 76  220/ 15/ 17 1010.0
BUOY 44095       0200      74                N/A     5/ 9   2/11
20E OREGON INLET NOT AVBL
HATTERAS CG      NOT AVBL
DIAMOND BUOY     0200   80     240/ 19/ 23 1010.7    6/10   5/10
CAPE LOOKOUT     0200   79     230/ 11/ 15 1012.0
BEAUFORT LAB     0200   78 75  230/  6/ 11 1011.4
30 SE NEW RIVER  0200   81 82  240/ 19/ 23 1012.6    4/ 8   3/ 8
5 SE WRIGHTSVILL 0200   76 79  240/ 14/ 19   N/A
BUOY 41002       0054   80 81  270/ 12/ 14 1015.2    8/ 7   7/ 7
BUOY 41004       0200   81 82  230/ 16/ 17 1014.1    3/ 7   2/ 7

$$


USA.gov is the U.S. government's official web portal to all federal, state and local government web resources and services.